OpenBCM V1.08-5-g2f4a (Linux)

Packet Radio Mailbox

IZ3LSV

[San Dona' di P. JN]

 Login: GUEST





  
I0OJJ  > KEPS     31.05.25 01:40l 347 Lines 16622 Bytes #20 (0) @ AMSAT
BID : ORB25151.1
Read: GUEST
Subj: 2Line Orbital Elements 25151.AMSAT
Path: IZ3LSV<IK6IHL<IK7NXU<HB9ON<HB9ON<PI8ZTM<VK2IO<VK2RZ<LU9DCE<EA2RCF<
      I0OJJ
Sent: 250531/0025z @:I0OJJ.ITA.EU [Rome] obcm1.08-10-g596e
From: I0OJJ @ I0OJJ.ITA.EU (Gustavo)
To:   KEPS @ AMSAT
X-Info: This message was generated automatically


QST de W1STR

AMSAT Orbital Elements for Amateur Satellites in TLE Format
From Orbital Analysis Office
New England Sci-Tech STEM Education Center
Natick, MA May 31, 2025
To all radio amateurs


These element sets describe the orbits of various satellites 
in use by the amateur radio community. For details see:
www.amsat.org/keplerian-elements-formats/

A daily update of element sets is available at:
www.amsat.org/tle/daily-bulletin.txt
or without bulletin text:
www.amsat.org/tle/dailytle.txt


AO-07
1 07530U 74089B   25150.60408601 -.00000041  00000-0  31881-4 0  9992
2 07530 101.9929 154.7621 0012503 139.7981 339.5508 12.53689383312572
UO-11
1 14781U 84021B   25150.45634892  .00001594  00000-0  17366-3 0  9995
2 14781  97.7538 117.0258 0008327  21.1687 338.9874 14.89357799200131
AO-27
1 22825U 93061C   25150.77711472  .00000126  00000-0  65334-4 0  9991
2 22825  98.7369 212.2834 0009236 136.4798 223.7115 14.30795876652580
FO-29
1 24278U 96046B   25150.62335132  .00000032  00000-0  69103-4 0  9994
2 24278  98.5771  45.8244 0350188   8.5935 352.0995 13.53248257421420
NOAA-15
1 25338U 98030A   25150.85470155  .00000221  00000-0  10834-3 0  9993
2 25338  98.5353 176.2201 0010853  34.2955 325.8925 14.26973679407010
GO-32
1 25397U 98043D   25150.50580633  .00000079  00000-0  54155-4 0  9993
2 25397  98.9698 129.4152 0000644 181.0324 179.0852 14.24312485396851
ISS
1 25544U 98067A   25150.85619127  .00012451  00000-0  22679-3 0  9994
2 25544  51.6367  32.9530 0001904 169.4288 190.6741 15.49873260512476
NO-44
1 26931U 01043C   25150.37692237  .00000158  00000-0  90289-4 0  9997
2 26931  67.0488 154.2202 0005994 275.1734  84.8684 14.31729044235641
SO-50
1 27607U 02058C   25150.56305639  .00001069  00000-0  15097-3 0  9998
2 27607  64.5528 231.4542 0055208 336.3278  23.5288 14.81597267207745
CO-55
1 27844U 03031E   25150.56163903  .00000326  00000-0  16085-3 0  9992
2 27844  98.6756 158.9647 0008939 210.1209 149.9457 14.23988353137244
CO-57
1 27848U 03031J   25150.57566597  .00000277  00000-0  14167-3 0  9997
2 27848  98.6787 158.9920 0008555 228.8324 131.2117 14.23324083136941
RS-22
1 27939U 03042A   25150.82488839  .00001225  00000-0  20197-3 0  9994
2 27939  98.3275 320.0416 0012316  46.0278  60.9577 14.72329286159397
NOAA-18
1 28654U 05018A   25150.85438514  .00000222  00000-0  14081-3 0  9993
2 28654  98.8423 230.4399 0014835 153.3327 206.8612 14.13605704 32377
CO-58
1 28895U 05043F   25150.38297578  .00001660  00000-0  27875-3 0  9991
2 28895  98.2486 294.6067 0013989 344.4092  15.6681 14.70980525 45446
CO-65
1 32785U 08021C   25150.56156619  .00004372  00000-0  31801-3 0  9990
2 32785  97.7847 121.6528 0007924 240.8745 119.1688 15.04328129927575
CO-66
1 32791U 08021J   25150.49041691  .00012892  00000-0  62850-3 0  9996
2 32791  97.7276 130.3092 0003586 169.6403 190.4905 15.18459542928967
RS-30
1 32953U 08025A   25150.82501145  .00000033  00000-0  16261-3 0  9991
2 32953  82.5038 233.2424 0020358  69.6710 290.6555 12.43164699772325
NOAA-19
1 33591U 09005A   25150.85926945  .00000196  00000-0  12817-3 0  9994
2 33591  98.9976 215.5091 0014248  35.5939 324.6180 14.13369130840734
SRMSAT
1 37841U 11058D   25150.48049123  .00000406  00000-0  76586-4 0  9998
2 37841  19.9708 215.6678 0011689 314.6591  73.9547 14.11432747703681
ZACUBE-1
1 39417U 13066B   25150.62422156  .00005636  00000-0  49003-3 0  9990
2 39417  97.7798 107.6911 0046299  85.6642 274.9867 14.96540464623422
Delfi-N3xt
1 39428U 13066N   25150.74567527  .00007768  00000-0  79117-3 0  9994
2 39428  97.8357  68.5068 0086267  33.9749 326.6950 14.88218387617795
GOMX-1
1 39430U 13066Q   25150.87259742  .00001856  00000-0  29500-3 0  9991
2 39430  97.6841  10.1329 0131427 223.0727 136.0136 14.67597402613985
LO-74
1 39440U 13066AA  25150.40204539  .00004138  00000-0  42169-3 0  9997
2 39440  97.8496  95.0339 0061029 212.3834 147.3632 14.89865302619924
AO-73
1 39444U 13066AE  25150.42263963  .00008935  00000-0  66880-3 0  9994
2 39444  97.7842 112.2980 0044287  62.7870 297.7857 15.02174778622064
DTUSAT-2
1 40030U 14033W   25150.53833857  .00007845  00000-0  51192-3 0  9998
2 40030  98.0549 121.8734 0010928  93.5138 266.7339 15.08116988594886
EO-80
1 40032U 14033Y   25150.49284127  .00006537  00000-0  42652-3 0  9993
2 40032  98.0431 121.4946 0009889  44.1734 316.0280 15.08198322594850
LILACSAT-2
1 40908U 15049K   25150.85537798  .00012259  00000-0  32247-3 0  9995
2 40908  97.5060 170.9687 0009244 183.0342 177.0848 15.38677969536738
IO-86
1 40931U 15052B   25103.16584653  .00001824  00000-0  15574-3 0  9999
2 40931   5.9984   7.7323 0012484  15.4851 344.5658 14.78734415515920
Horyu-4
1 41340U 16012D   25150.14996865  .00025685  00000-0  69558-3 0  9995
2 41340  30.9950 202.0582 0006225 304.1581  55.8474 15.36430724511180
Lapan A3
1 41603U 16040E   25150.81997608  .00003518  00000-0  12432-3 0  9998
2 41603  97.1368 155.8115 0009405 311.2151  48.8279 15.29790560496290
CAS-2T
1 41847U 16066G   25150.49188739  .00001375  00000-0  20502-3 0  9993
2 41847  98.4203 225.0423 0345711 208.8510 149.3175 14.43443084449568
CAS-4B
1 42759U 17034B   25150.81678060  .00062583  00000-0  68781-3 0  9998
2 42759  43.0081  20.0215 0020763 227.0596 132.8527 15.62050838441076
CAS-4A
1 42761U 17034D   25150.85761567  .00067705  00000-0  70845-3 0  9995
2 42761  43.0121  17.0369 0022167 231.1946 128.6940 15.63235429441103
TechnoSat
1 42829U 17042E   25150.51552388  .00002735  00000-0  21465-3 0  9997
2 42829  97.3920 319.7118 0012827 314.9707  45.0477 15.01660538429218
AO-91
1 43017U 17073E   25150.61753290  .00006939  00000-0  35860-3 0  9991
2 43017  97.5250  21.6448 0172466 199.9623 159.4802 15.04542182407715
S-Net D
1 43186U 18014G   25150.63666255  .00004579  00000-0  27244-3 0  9995
2 43186  97.5632  53.6447 0007279 257.4059 102.6357 15.11724486400874
S-Net B
1 43187U 18014H   25150.57573330  .00004659  00000-0  27721-3 0  9999
2 43187  97.5640  53.5558 0007955 251.7255 108.3110 15.11704954400869
S-Net A
1 43188U 18014J   25150.63707642  .00004539  00000-0  27002-3 0  9991
2 43188  97.5647  53.7650 0007905 252.7223 107.3143 15.11729400400872
S-Net C
1 43189U 18014K   25150.24713611  .00005348  00000-0  31761-3 0  9998
2 43189  97.5664  53.3917 0009417 245.6784 114.3463 15.11699495399361
Ten-Koh
1 43677U 18084G   25150.45998842  .00002618  00000-0  21279-3 0  9991
2 43677  98.0876 322.3149 0005088 304.8573  55.2171 15.00527219358720
PO-101
1 43678U 18084H   25150.83839484  .00003210  00000-0  27510-3 0  9993
2 43678  98.1039 326.5902 0006836 331.6875  28.3974 14.98292560358929
QO-100
1 43700U 18090A   25150.59073612  .00000139  00000-0  00000-0 0  9991
2 43700   0.0173 314.7387 0001682 146.3525  25.7172  1.00268706 23844
MinXSS-2
1 43758U 18099A   25150.68816486  .00015739  00000-0  62431-3 0  9998
2 43758  97.5016 216.6934 0012321 182.8947 177.2221 15.25388149355467
AO-95
1 43770U 18099N   25150.42566865  .00010844  00000-0  55063-3 0  9992
2 43770  97.4914 208.6245 0009296 241.4969 118.5328 15.17040326355016
RANGE-A
1 43773U 18099R   25150.38901302  .00005045  00000-0  32274-3 0  9995
2 43773  97.4483 199.0867 0010232 219.0558 140.9933 15.08991072354686
MOVE-II
1 43780U 18099Y   25150.74106232  .00209711  00000-0  15815-2 0  9999
2 43780  97.4649 225.6400 0006443 190.2666 169.8466 15.71837840356254
SNUSat 2
1 43782U 18099AA  25150.56410460  .00008661  00000-0  47357-3 0  9990
2 43782  97.4594 205.5941 0012232 180.8760 179.2453 15.14452998354988
SnugLite
1 43784U 18099AC  25150.39223896  .00010619  00000-0  53469-3 0  9995
2 43784  97.4410 204.9657 0003995 164.2296 195.9063 15.17366788355099
ITASat 1
1 43786U 18099AE  25150.69072544  .00006554  00000-0  37623-3 0  9999
2 43786  97.4564 205.2575 0013085 235.9073 124.0917 15.12798151354968
EAGLET 1
1 43790U 18099AJ  25150.86911956  .00004146  00000-0  26608-3 0  9998
2 43790  97.4765 205.4208 0011097 215.4909 144.5582 15.08966298354603
ESEO
1 43792U 18099AL  25150.61262679  .00002541  00000-0  19503-3 0  9997
2 43792  97.4483 198.5633 0012654 193.9483 166.1395 15.02574537354329
CSIM
1 43793U 18099AM  25150.78555806  .00202088  00000-0  15796-2 0  9990
2 43793  97.4812 227.9411 0006716 180.7268 179.3986 15.70999381356107
JO-97
1 43803U 18099AX  25150.38541079  .00014131  00000-0  64694-3 0  9997
2 43803  97.4660 209.5544 0008187 169.6403 190.5002 15.20583851355226
Suomi 100
1 43804U 18099AY  25150.71309594  .00010540  00000-0  51760-3 0  9999
2 43804  97.4723 209.2034 0012955 175.3457 184.7900 15.18180148355208
ISAT
1 43879U 18111D   25150.55198034  .00018463  00000-0  64684-3 0  9994
2 43879  97.5965  64.7261 0007067 221.7150 138.3552 15.29508734350142
UWE-4
1 43880U 18111E   25150.70291933  .00014901  00000-0  58796-3 0  9995
2 43880  97.5909  63.4272 0010109 240.4824 119.5406 15.25604710350121
Sparrow
1 43881U 18111F   25150.28048044  .00022770  00000-0  76822-3 0  9995
2 43881  97.6111  67.2866 0004520 275.6797  84.3928 15.30704850352210
Prox-1
1 44339U 19036A   25150.23369310  .00013211  00000-0  16824-2 0  9993
2 44339  23.9958 129.7445 0006760 315.3353  44.6599 14.79742744316573
SONATE
1 44400U 19038Q   25150.58368586  .00231789  21587-4  81508-3 0  9997
2 44400  97.6879 176.2701 0004591 217.8621 142.2328 15.89152708327987
Taurus 1
1 44530U 19059C   25150.82829670  .00006412  00000-0  11855-2 0  9990
2 44530  98.6068 289.7593 0010254  73.3702 286.8625 14.65724649302518
Duchifat 3
1 44854U 19089C   25150.09852396  .00050068  00000-0  10058-2 0  9992
2 44854  36.9442  61.7965 0004575 252.1214 107.9044 15.45638429301395
